Rifle, CO

1:17 PM MDT on September 26, 2017 (GMT -0600)
Garfield County Regional

Weather History for KRIL - June, 2013

Change the Weather History Date:

Tuesday, June 18, 2013

  Actual Average Record
Temperature  
Mean Temperature 71 °F 67 °F  
Max Temperature 91 °F 86 °F 99 °F (1936)
Min Temperature 50 °F 48 °F 34 °F (1929)
Degree Days  
Heating Degree Days 0 1  
Month to date heating degree days 13 52  
Since 1 June heating degree days 13 52  
Since 1 July heating degree days 6694 6618  
Cooling Degree Days 6 3  
Month to date cooling degree days 66 39  
Year to date cooling degree days 73 46  
Since 1 June cooling degree days 66 39  
Growing Degree Days 21 (Base 50)    
Moisture  
Dew Point 27 °F    
Average Humidity 27    
Maximum Humidity 48    
Minimum Humidity 6    
Precipitation  
Precipitation 0.00 in 0.04 in 0.44 in (1946)
Month to date precipitation T 0.73  
Year to date precipitation 3.99 6.15  
Sea Level Pressure  
Sea Level Pressure 29.79 in    
Wind  
Wind Speed 6 mph (SW)    
Max Wind Speed 25 mph    
Max Gust Speed 38 mph    
Visibility 10 miles    
Events      
T = Trace of Precipitation, MM = Missing Value Source: NWS Daily Summary

Daily Weather History Graph

Daily Weather History Graph

Search for Another Location

Airport or City:

Trip Planner

Search our weather history database for the weather conditions in past years. The results will help you decide how hot, cold, wet, or windy it might be!

Date:

Astronomy

Jun. 18, 2013 Rise Set
Actual Time 5:43 AM MDT 8:41 PM MDT
Civil Twilight 5:10 AM MDT 9:13 PM MDT
Nautical Twilight 4:29 AM MDT 9:54 PM MDT
Astronomical Twilight 3:41 AM MDT 10:42 PM MDT
Moon 3:29 PM MDT (6/18) 1:52 AM MDT (6/18)
Length of Visible Light 16h 02m
Length of Day
14h 57m
Waxing Gibbous, 71% of the Moon is Illuminated
Jun 18
Waxing Gibbous
Jun 23
Full
Jun 29
Last Quarter
Jul 8
New
Jul 15
First Quarter

Hourly Weather History & Observations

Time (MDT) Temp. Dew Point Humidity Pressure Visibility Wind Dir Wind Speed Gust Speed Precip Events Conditions
12:53 AM 60.1 °F 30.9 °F 33% 29.86 in 10.0 mi Calm Calm - N/A   Clear
1:53 AM 55.9 °F 30.0 °F 37% 29.88 in 10.0 mi Calm Calm - N/A   Clear
2:53 AM 55.0 °F 30.9 °F 40% 29.89 in 10.0 mi Calm Calm - N/A   Clear
3:53 AM 52.0 °F 30.9 °F 45% 29.88 in 10.0 mi ESE 4.6 mph - N/A   Clear
4:53 AM 51.1 °F 30.9 °F 46% 29.89 in 10.0 mi Calm Calm - N/A   Clear
5:53 AM 51.1 °F 32.0 °F 48% 29.90 in 10.0 mi Calm Calm - N/A   Clear
6:53 AM 53.1 °F 33.1 °F 47% 29.91 in 10.0 mi Calm Calm - N/A   Clear
7:53 AM 59.0 °F 37.0 °F 44% 29.90 in 10.0 mi NW 5.8 mph - N/A   Clear
8:53 AM 64.9 °F 37.0 °F 36% 29.90 in 10.0 mi Calm Calm - N/A   Clear
9:53 AM 73.0 °F 39.9 °F 30% 29.85 in 10.0 mi Calm Calm - N/A   Clear
10:53 AM 78.1 °F 39.9 °F 25% 29.82 in 10.0 mi WNW 3.5 mph - N/A   Clear
11:53 AM 82.0 °F 37.0 °F 20% 29.80 in 10.0 mi Calm Calm - N/A   Clear
12:53 PM 84.0 °F 30.0 °F 14% 29.78 in 10.0 mi WNW 9.2 mph - N/A   Clear
1:53 PM 86.0 °F 26.1 °F 11% 29.76 in 10.0 mi NNW 8.1 mph - N/A   Clear
2:48 PM 89.6 °F 23.0 °F 9% 29.94 in 10.0 mi SW 6.9 mph 25.3 mph N/A   Clear
2:53 PM 88.0 °F 21.9 °F 9% 29.72 in 10.0 mi SE 8.1 mph - N/A   Clear
3:53 PM 91.0 °F 21.0 °F 8% 29.69 in 10.0 mi SW 13.8 mph 24.2 mph N/A   Clear
4:53 PM 89.1 °F 21.0 °F 8% 29.68 in 10.0 mi SSW 12.7 mph 21.9 mph N/A   Clear
5:53 PM 90.0 °F 19.0 °F 7% 29.65 in 10.0 mi WSW 16.1 mph 25.3 mph N/A   Clear
6:53 PM 88.0 °F 23.0 °F 9% 29.65 in 10.0 mi SW 12.7 mph 23.0 mph N/A   Clear
7:53 PM 86.0 °F 14.0 °F 7% 29.64 in 10.0 mi WSW 18.4 mph 24.2 mph N/A   Clear
8:53 PM 79.0 °F 12.0 °F 8% 29.65 in 10.0 mi SSW 10.4 mph - N/A   Clear
9:53 PM 75.9 °F 12.0 °F 9% 29.65 in 10.0 mi SSW 9.2 mph - N/A   Clear
10:53 PM 63.0 °F 21.0 °F 20% 29.69 in 10.0 mi Calm Calm - N/A   Clear
11:53 PM 63.0 °F 16.0 °F 16% 29.69 in 10.0 mi East 3.5 mph - N/A   Clear